Regional Weather Roundup
Issued by NWS

Home | Current Version | Previous Version | Text Only | Print | Product List | Glossary Off
Versions: 1 2 3 4 5 6 7 8 9 10 11 12 13 14 15 16 17 18 19 20 21 22 23 24 25 26 27 28 29 30 31 32 33 34 35 36 37 38 39 40 41 42 43 44 45 46 47 48 49 50

000
ASUS43 KFSD 291310
RWRSD

WEATHER ROUNDUP FOR SOUTH DAKOTA
NATIONAL WEATHER SERVICE SIOUX FALLS SD
800 AM CDT MON AUG 29 2016

NOTE: "FAIR" INDICATES FEW OR NO CLOUDS BELOW 12,000 FEET WITH NO
SIGNIFICANT WEATHER AND/OR OBSTRUCTIONS TO VISIBILITY.


SDZ001>005-009-010-012>017-291400-
NORTHWEST AND NORTH CENTRAL SOUTH DAKOTA

CITY           SKY/WX    TMP DP  RH WIND       PRES   REMARKS
BUFFALO          N/A     63  52  67 N10       30.19R
FAITH            N/A     60  53  77 N13       30.18R
MOBRIDGE       CLEAR     67  60  78 N12       30.11R
$$

SDZ012>016-024>037-041>051-057-063-072>074-291400-
SOUTHWEST AND SOUTH CENTRAL SOUTH DAKOTA

CITY           SKY/WX    TMP DP  RH WIND       PRES   REMARKS
RAPID CTY ARPT CLEAR     61  50  67 NW16      30.20R
PIERRE         CLEAR     68  60  75 S5        30.08R
CUSTER         CLOUDY    56  35  45 N5        30.32R
ELLSWORTH AFB  CLEAR     62  51  66 N18       30.20R
PHILIP         PTCLDY    59  57  93 W7        30.12R
PINE RIDGE     CLEAR     58  56  93 NW7       30.19R
WINNER         FAIR      70  62  76 S14       30.11R
$$

SDZ004>011-016>023-039-040-291400-
NORTHEAST SOUTH DAKOTA

CITY           SKY/WX    TMP DP  RH WIND       PRES   REMARKS
ABERDEEN       FOG       66  65  96 CALM      30.08R VSB<1/4
WATERTOWN      SUNNY     70  68  93 S9        30.11R
BROOKINGS        N/A    N/A N/A N/A MISG        N/A
SISSETON         N/A     75  68  78 SE6       30.10R
$$

SDZ017-020-022-023-036>040-048>070-291400-
SOUTHEAST SOUTH DAKOTA

CITY           SKY/WX    TMP DP  RH WIND       PRES   REMARKS
SIOUX FALLS    MOSUNNY   69  67  93 S7        30.13S
HURON          CLOUDY    69  67  93 S8        30.09R
CHAMBERLAIN    SUNNY     69  65  88 S5        30.10R
MITCHELL       SUNNY     70  67  90 S10       30.11R
YANKTON        PTSUNNY   66  63  88 SE6       30.13R
$$

ABBREVIATIONS USED IN REMARKS
   TC - TEMPERATURE IN CELSIUS
  WCI - WIND CHILL INDEX
   HX - HEAT INDEX
  VSB - VISIBILITY




USA.gov is the U.S. government's official web portal to all federal, state and local government web resources and services.